User: anonymous   Login
Location: Boissi�res
(45.2500°N, 2.3667°E)
Time: 01:48:50
(UTC+00:00)
Language:

SeaSat 1 - Orbit

View from above orbital plane
View from above orbital plane
View from above satellite
View from above satellite

Ground track
Ground track

The orbit data is extracted from the following two-line orbital elements,

1 10967U 78064A   21136.58078815 -.00000052  00000-0  25041-4 0  9997
2 10967 107.9964  47.0667 0002295 257.2465 102.8423 14.43877284252591
Epoch (UTC): 16 May 2021 13:56:20
Eccentricity: 0.0002295
inclination: 107.9964°
perigee height: 744 km
apogee height: 747 km
right ascension of ascending node: 47.0667°
argument of perigee: 257.2465°
revolutions per day: 14.43877284
mean anomaly at epoch: 102.8423°
orbit number at epoch: 25259

The dashed part of the orbit path shows where the satellite is in the earth's shadow,  

DLR